[[{"header":{"parameterUnit":"m.s-1","parameterCategory":1,"la1":30.2991,"la2":30.254,"lo1":-89.0895,"lo2":-89.0444,"dy":0.0017,"dx":0.0017,"nx":28,"ny":28,"refTime":"2024-04-19T09:00:00:Z","depth":0,"parameterNumber":2,"parameterNumberName":"U-component_of_WINDS"},"data":[0,0,0,0,0,0,0,0,0,0,0,0,0,0,0,0,0,0,0,0,0,0,0,0,0,0,0,0,0,0,0,0,0,0,0,0,0,0,0,0,0,0,0,0,0,0,0,0,0,0,0,0,0,0,0,0,0,0,1.1155,1.1156,0,1.1264,1.1265,1.1267,1.1282,1.1281,1.128,1.1279,1.1387,1.1391,1.1395,0,0,0,0,0,0,0,0,0,0,0,0,0,1.0956,1.096,1.1155,1.1156,1.1158,1.1264,1.1265,1.1267,1.1282,1.1281,1.1279,1.1278,1.1386,1.1391,1.1395,0,0,0,0,0,0,0,0,0,0,0,0,0,1.1051,1.0961,1.1155,1.1178,1.1181,1.1264,1.1265,1.1267,1.1282,1.128,1.1279,1.1278,1.1385,1.139,1.1396,1.1462,0,0,1.1413,1.1416,0,0,0,0,0,0,0,0,1.1046,1.1059,1.1173,1.1177,1.118,1.1258,1.1235,1.1332,1.1282,1.1244,1.1279,1.1277,1.1345,1.1354,1.1378,1.1467,1.1471,1.1414,1.1417,1.142,1.1421,0,0,0,0,0,0,0,1.1039,1.1054,1.1198,1.1175,1.1179,1.1182,1.1194,1.1254,1.1301,1.1247,1.1248,1.1261,1.1347,1.1372,1.138,1.1473,1.1414,1.1419,1.1422,1.1425,1.1621,1.1623,0,0,0,0,0,0,1.1029,1.1049,1.1195,1.1201,1.1108,1.1187,1.12,1.1234,1.1301,1.131,1.1262,1.1261,1.1363,1.1374,1.1384,1.1466,1.142,1.1425,1.1429,1.1619,1.1621,1.1623,0,0,0,0,0,0,1.1025,1.1042,1.119,1.1125,1.1145,1.1192,1.123,1.1237,1.1263,1.1313,1.1321,1.128,1.1362,1.1376,1.1442,1.147,1.1428,1.1433,1.1617,1.162,1.1622,1.1629,0,0,0,0,0,0,1.1019,1.104,1.1067,1.1126,1.1148,1.1247,1.1232,1.1241,1.1273,1.1273,1.1331,1.1339,1.1362,1.1434,1.1448,1.1477,1.1438,1.1615,1.1618,1.1621,1.1626,1.1631,1.1635,0,0,0,0,0,1.1012,1.1063,1.1068,1.1085,1.1182,1.1249,1.1261,1.1288,1.1275,1.1301,1.1333,1.1337,1.1464,1.144,1.1457,1.1487,1.1613,1.1617,1.1621,1.1624,1.163,1.1635,0,0,0,0,0,0,1.1005,1.1072,1.1077,1.115,1.1194,1.1251,1.1285,1.1293,1.1341,1.1339,1.1368,1.1381,1.1446,1.1473,1.1446,1.1554,1.1538,1.1545,1.1534,1.154,1.1545,1.1537,1.1442,0,0,0,0,0,1.1012,1.1062,1.1117,1.1176,1.1198,1.1238,1.1268,1.1284,1.1331,1.1349,1.1386,1.143,1.1479,1.1511,1.156,1.163,1.1643,1.1659,1.1664,1.1667,1.1673,1.1712,1.172,1.1636,1.1636,1.1636,0,0,1.1026,1.1069,1.1099,1.1175,1.1211,1.1261,1.1253,1.1306,1.1343,1.1357,1.1422,1.145,1.1501,1.1569,1.1601,1.1594,1.1699,1.1673,1.1675,1.1679,1.1717,1.1725,1.1732,1.1639,1.1638,1.1638,0,0,1.1079,1.1117,1.1169,1.1206,1.1261,1.1287,1.13,1.1357,1.1377,1.1443,1.1453,1.1497,1.1583,1.1618,1.1648,1.1714,1.1719,1.1728,1.1752,1.179,1.1796,1.1802,1.1825,1.1833,1.1734,1.1734,1.1734,0,1.109,1.1167,1.1195,1.1249,1.1282,1.1297,1.135,1.1384,1.1451,1.1473,1.1464,1.1572,1.1607,1.1684,1.17,1.1723,1.1738,1.1722,1.1793,1.1799,1.1805,1.1827,1.1836,1.1735,1.1735,1.1735,1.1735,0,1.1177,1.123,1.1266,1.1333,1.137,1.1422,1.1458,1.1492,1.1505,1.1532,1.1598,1.1641,1.1699,1.1718,1.1731,1.1797,1.1791,1.1787,1.1771,1.1814,1.1835,1.1844,1.1736,1.1736,1.1736,1.1735,0,0,1.1227,1.1309,1.1322,1.1352,1.1414,1.1455,1.1508,1.1566,1.1594,1.164,1.1684,1.1756,1.1754,1.1787,1.1804,1.1837,1.1885,1.1829,1.1831,1.1838,1.1959,1.1961,1.1971,1.189,1.1891,1.1893,1.1955,0,1.1286,1.1383,1.141,1.1492,1.1541,1.1556,1.1602,1.1645,1.1671,1.1716,1.1745,1.1795,1.1788,1.1808,1.1841,1.1873,1.191,1.1868,1.193,1.1932,1.1917,1.1982,1.1984,1.2041,1.1963,1.1965,1.1966,0,1.1368,1.1417,1.1503,1.1559,1.1581,1.1622,1.1677,1.172,1.1767,1.1784,1.1822,1.1836,1.1891,1.1872,1.1947,1.1918,1.1945,1.1964,1.1967,1.1973,1.1951,1.1989,1.206,1.2068,1.1979,1.1978,1.1977,0,1.1395,1.1483,1.1546,1.1571,1.1638,1.1667,1.1695,1.1742,1.1775,1.1822,1.1843,1.1896,1.1924,1.1964,1.1992,1.1976,1.2065,1.2048,1.2079,1.2079,1.2097,1.2095,1.2172,1.2115,1.2115,1.2115,1.2115,0,1.1458,1.151,1.1559,1.1598,1.1656,1.1687,1.1743,1.1772,1.1814,1.1858,1.1874,1.1914,1.1949,1.1993,1.2015,1.2074,1.2087,1.2101,1.2106,1.21,1.2098,1.2117,1.2114,1.2117,1.2117,1.2116,1.2116,0,1.1498,1.1533,1.1603,1.1661,1.1677,1.1717,1.1766,1.1803,1.1831,1.1886,1.19,1.1943,1.1996,1.2028,1.2096,1.211,1.2175,1.2179,1.2159,1.2161,1.219,1.2187,1.2282,1.2295,1.223,1.2231,1.2231,0,1.1535,1.1576,1.1639,1.167,1.17,1.175,1.1783,1.1815,1.1849,1.1907,1.1937,1.1992,1.2037,1.2122,1.2158,1.2209,1.2214,1.2243,1.2221,1.2213,1.2213,1.221,1.2214,1.2247,1.2247,1.2248,1.2248,0,1.1598,1.1613,1.1662,1.1717,1.1757,1.1802,1.1846,1.187,1.1909,1.1946,1.2002,1.2037,1.2106,1.216,1.2214,1.2243,1.2252,1.2255,1.2265,1.2258,1.2245,1.2252,1.2169,1.2253,1.2252,1.2252,1.2252,1.2251,1.1637,1.1674,1.1724,1.1778,1.1815,1.1856,1.1894,1.1927,1.1974,1.2034,1.2049,1.2107,1.2154,1.2228,1.2258,1.2303,1.2298,1.2312,1.2316,1.2319,1.2319,1.2238,1.2313,1.2313,1.2312,1.2312,1.2312,0,1.17,1.1733,1.1783,1.1845,1.1887,1.1893,1.1942,1.1976,1.2028,1.2071,1.2116,1.2179,1.2232,1.2272,1.2326,1.2354,1.2359,1.2367,1.2364,1.2371,1.2321,1.2307,1.2361,1.2361,1.2361,1.2361,1.2361,1.2361,1.1737,1.18,1.1822,1.1902,1.1935,1.1993,1.2021,1.2058,1.2093,1.2164,1.2208,1.2234,1.2276,1.2333,1.2381,1.2391,1.241,1.2416,1.2427,1.238,1.2374,1.2369,1.2356,1.242,1.242,1.2474,1.2474,1.2474]},{"header":{"parameterUnit":"m.s-1","parameterCategory":1,"la1":30.2991,"la2":30.254,"lo1":-89.0895,"lo2":-89.0444,"dy":0.0017,"dx":0.0017,"nx":28,"ny":28,"refTime":"2024-04-19T09:00:00:Z","depth":0,"parameterNumber":3,"parameterNumberName":"V-component_of_WINDS"},"data":[0,0,0,0,0,0,0,0,0,0,0,0,0,0,0,0,0,0,0,0,0,0,0,0,0,0,0,0,0,0,0,0,0,0,0,0,0,0,0,0,0,0,0,0,0,0,0,0,0,0,0,0,0,0,0,0,0,0,4.0369,4.0369,0,4.0357,4.0357,4.0357,4.026,4.0258,4.0255,4.0253,4.024,4.0242,4.0244,0,0,0,0,0,0,0,0,0,0,0,0,0,4.0309,4.031,4.0369,4.0369,4.0369,4.0357,4.0357,4.0357,4.026,4.0257,4.0255,4.0252,4.024,4.0242,4.0244,0,0,0,0,0,0,0,0,0,0,0,0,0,4.032,4.0311,4.0369,4.0319,4.0315,4.0357,4.0357,4.0357,4.0261,4.0257,4.0254,4.025,4.0239,4.0242,4.0244,4.0333,0,0,4.0253,4.0254,0,0,0,0,0,0,0,0,4.0319,4.0322,4.0327,4.0323,4.0318,4.0306,4.0331,4.0349,4.0262,4.0281,4.0253,4.0249,4.0265,4.0265,4.0271,4.0333,4.0332,4.0253,4.0255,4.0256,4.0257,0,0,0,0,0,0,0,4.0319,4.0322,4.0364,4.0327,4.0321,4.0298,4.0295,4.0334,4.0293,4.0279,4.0272,4.0272,4.0262,4.0269,4.027,4.0332,4.0253,4.0256,4.0257,4.0259,4.0468,4.0471,0,0,0,0,0,0,4.0325,4.0322,4.0365,4.0364,4.031,4.0302,4.0299,4.0314,4.0293,4.0286,4.0275,4.0268,4.0266,4.0267,4.0269,4.0373,4.0256,4.0259,4.026,4.0464,4.0468,4.0473,0,0,0,0,0,0,4.0324,4.033,4.0365,4.0341,4.0344,4.0306,4.0324,4.0315,4.0322,4.029,4.0282,4.029,4.0263,4.0265,4.0318,4.0371,4.026,4.0263,4.0459,4.0465,4.0471,4.0581,0,0,0,0,0,0,4.0323,4.033,4.0363,4.0343,4.0345,4.0415,4.0327,4.0318,4.0327,4.0317,4.0301,4.0295,4.026,4.0315,4.0321,4.0373,4.0265,4.0454,4.0462,4.0469,4.0573,4.059,4.0605,0,0,0,0,0,4.0321,4.0394,4.0365,4.0371,4.0386,4.0418,4.042,4.0378,4.0332,4.0365,4.0345,4.0295,4.0364,4.0321,4.0328,4.0381,4.0451,4.046,4.0468,4.0566,4.0587,4.0605,0,0,0,0,0,0,4.0421,4.0391,4.0358,4.0427,4.0426,4.0402,4.0442,4.0402,4.0414,4.0404,4.0352,4.0349,4.0411,4.0401,4.0353,4.0467,4.0399,4.041,4.0471,4.0491,4.0507,4.0508,4.0267,0,0,0,0,0,4.0452,4.048,4.0452,4.0515,4.0517,4.048,4.0492,4.0461,4.0457,4.0456,4.0439,4.0438,4.0459,4.0474,4.0492,4.0571,4.0566,4.0611,4.0627,4.064,4.065,4.0693,4.0712,4.0501,4.0501,4.0501,0,0,4.0515,4.0501,4.0522,4.0535,4.0531,4.0562,4.048,4.0516,4.0538,4.0461,4.0511,4.0499,4.0494,4.0561,4.0589,4.0555,4.0708,4.0651,4.0662,4.0665,4.0704,4.0724,4.0741,4.0507,4.0506,4.0505,0,0,4.0645,4.0638,4.0691,4.0688,4.0682,4.0658,4.0671,4.0653,4.0642,4.0691,4.0634,4.066,4.0698,4.0697,4.0701,4.0833,4.0789,4.084,4.0925,4.0967,4.0984,4.0998,4.1046,4.1064,4.085,4.0851,4.0851,0,4.0724,4.0768,4.0723,4.0763,4.0771,4.0703,4.0757,4.0756,4.0757,4.0764,4.0725,4.0772,4.0763,4.083,4.0862,4.0868,4.0881,4.0842,4.0985,4.0999,4.1012,4.1057,4.1075,4.0857,4.0856,4.0855,4.0855,0,4.0866,4.0898,4.0941,4.0945,4.0957,4.1004,4.0966,4.0984,4.0952,4.0931,4.0983,4.0971,4.0985,4.0999,4.0967,4.1061,4.104,4.0994,4.0925,4.1039,4.1081,4.1098,4.0866,4.0864,4.0862,4.086,0,0,4.106,4.1038,4.1055,4.1056,4.1045,4.1069,4.1113,4.1128,4.1145,4.1148,4.1184,4.1218,4.1176,4.1181,4.1148,4.1185,4.1292,4.1134,4.1133,4.1165,4.1397,4.1433,4.1453,4.1262,4.1266,4.1268,4.1398,0,4.1186,4.126,4.1221,4.1301,4.133,4.1267,4.1305,4.1303,4.1286,4.1308,4.1288,4.1314,4.1255,4.1258,4.1292,4.1272,4.1338,4.1262,4.1296,4.1298,4.1301,4.1475,4.1512,4.1635,4.1414,4.1416,4.1418,0,4.1343,4.1354,4.1437,4.1422,4.1433,4.1468,4.148,4.1502,4.1498,4.1483,4.149,4.1449,4.1491,4.1423,4.1481,4.1431,4.1442,4.1435,4.1439,4.1441,4.1366,4.1483,4.1673,4.1693,4.1443,4.1441,4.1439,0,4.1478,4.1513,4.1567,4.157,4.1554,4.158,4.1575,4.1568,4.158,4.1589,4.1597,4.1611,4.162,4.1632,4.1596,4.155,4.166,4.1588,4.1649,4.1651,4.1676,4.1675,4.1872,4.1682,4.1682,4.1682,4.1681,0,4.1624,4.1678,4.1628,4.1662,4.172,4.1674,4.1734,4.1721,4.1716,4.1746,4.1691,4.1721,4.1672,4.1697,4.1669,4.1722,4.1726,4.1715,4.1708,4.1721,4.1723,4.1729,4.172,4.1686,4.1685,4.1684,4.1684,0,4.1785,4.1753,4.1809,4.1789,4.1785,4.183,4.1813,4.1843,4.1822,4.1861,4.1868,4.1835,4.1861,4.1827,4.185,4.1831,4.1905,4.1884,4.1907,4.1901,4.1965,4.196,4.2173,4.2199,4.1992,4.1994,4.1995,0,4.188,4.192,4.1906,4.1922,4.192,4.1947,4.196,4.1917,4.1932,4.1932,4.1963,4.1985,4.2,4.2046,4.2024,4.2042,4.2021,4.2095,4.2023,4.2036,4.2024,4.2023,4.2027,4.211,4.2112,4.2114,4.2116,0,4.2054,4.2037,4.2057,4.2073,4.2089,4.2099,4.2104,4.2121,4.2076,4.2096,4.2123,4.2135,4.2159,4.2182,4.2194,4.2188,4.2146,4.2138,4.2154,4.2168,4.2181,4.2176,4.1948,4.2134,4.2132,4.2131,4.213,4.2129,4.2186,4.2219,4.2215,4.2239,4.2239,4.2246,4.2274,4.2257,4.2279,4.2295,4.2268,4.2303,4.2299,4.2311,4.231,4.2337,4.2305,4.2327,4.2332,4.2339,4.2349,4.2176,4.2338,4.2338,4.2337,4.2337,4.2336,0,4.2359,4.2353,4.2376,4.2386,4.2406,4.2363,4.2368,4.2387,4.2418,4.2418,4.2435,4.2467,4.2489,4.247,4.2488,4.2513,4.2494,4.252,4.2518,4.2518,4.2376,4.2361,4.2535,4.2535,4.2535,4.2535,4.2535,4.2535,4.2451,4.2505,4.2488,4.2542,4.2535,4.2569,4.2575,4.2581,4.2582,4.262,4.2638,4.2625,4.2618,4.2636,4.2655,4.2648,4.2658,4.2691,4.2678,4.2547,4.2527,4.2509,4.2495,4.2693,4.2694,4.2818,4.2819,4.282]}]]